When you browse on this site, cookies collect data to enhance your experience and personalize the content and advertising you see.
Visit our Privacy Policy to learn more. By continuing to use the site, you agree to this use of cookies and data.
  • In Hungary
  • List of Countries
  • For 7 days
  • Water Temperature
  • Satellite Maps
  • Weather Map
  • News
  • Weather Widgets
  • user-avatar
    Login

    Hourly Weather Leicester

    Today, 23 February, Saturday

    Time Temperature Precipitation Wind Pressure Humidity
    00:00 +5°C° 0 mm 4 mps 768 mmHg 84%
    01:00 +5°C° 0 mm 4 mps 768 mmHg 86%
    02:00 +5°C° 0 mm 4 mps 768 mmHg 88%
    03:00 +5°C° 0 mm 4 mps 767 mmHg 90%
    04:00 +5°C° 0 mm 4 mps 767 mmHg 91%
    05:00 +5°C° 0 mm 3 mps 767 mmHg 93%
    06:00 +5°C° 0 mm 3 mps 767 mmHg 94%
    07:00 +6°C° 0 mm 4 mps 767 mmHg 93%
    08:00 +7°C° 0 mm 4 mps 767 mmHg 91%
    09:00 +8°C° 0 mm 5 mps 767 mmHg 90%
    10:00 +10°C° 0 mm 5 mps 767 mmHg 85%
    11:00 +12°C° 0 mm 5 mps 767 mmHg 81%
    12:00 +14°C° 0 mm 5 mps 767 mmHg 77%
    13:00 +14°C° 0 mm 5 mps 767 mmHg 76%
    14:00 +14°C° 0 mm 5 mps 767 mmHg 75%
    15:00 +14°C° 0 mm 5 mps 767 mmHg 74%
    16:00 +13°C° 0 mm 4 mps 767 mmHg 79%
    17:00 +12°C° 0 mm 3 mps 767 mmHg 84%
    18:00 +10°C° 0 mm 2 mps 768 mmHg 89%
    19:00 +10°C° 0 mm 2 mps 768 mmHg 90%
    20:00 +9°C° 0 mm 2 mps 768 mmHg 91%
    21:00 +9°C° 0 mm 2 mps 768 mmHg 92%
    22:00 +9°C° 0 mm 2 mps 769 mmHg 92%
    23:00 +8°C° 0 mm 2 mps 769 mmHg 92%

    Tomorrow, 24 February, Sunday

    Time Temperature Precipitation Wind Pressure Humidity
    00:00 +9°C° 0 mm 1 mps 769 mmHg 92%
    01:00 +8°C° 0 mm 1 mps 769 mmHg 92%
    02:00 +8°C° 0 mm 1 mps 769 mmHg 92%
    03:00 +7°C° 0 mm 1 mps 769 mmHg 92%
    04:00 +7°C° 0 mm 1 mps 769 mmHg 91%
    05:00 +7°C° 0 mm 1 mps 769 mmHg 91%
    06:00 +7°C° 0 mm 1 mps 769 mmHg 91%
    07:00 +6°C° 0 mm 2 mps 769 mmHg 88%
    08:00 +7°C° 0 mm 2 mps 770 mmHg 85%
    09:00 +8°C° 0 mm 2 mps 770 mmHg 83%
    10:00 +9°C° 0 mm 2 mps 770 mmHg 75%
    11:00 +10°C° 0 mm 3 mps 770 mmHg 68%
    12:00 +12°C° 0 mm 3 mps 770 mmHg 61%
    13:00 +12°C° 0 mm 3 mps 770 mmHg 60%
    14:00 +12°C° 0 mm 3 mps 770 mmHg 59%
    15:00 +13°C° 0 mm 3 mps 770 mmHg 58%
    16:00 +12°C° 0 mm 2 mps 770 mmHg 63%
    17:00 +9°C° 0 mm 2 mps 770 mmHg 67%
    18:00 +8°C° 0 mm 2 mps 770 mmHg 72%
    19:00 +7°C° 0 mm 2 mps 770 mmHg 72%
    20:00 +6°C° 0 mm 2 mps 770 mmHg 72%
    21:00 +6°C° 0 mm 2 mps 771 mmHg 72%
    22:00 +5°C° 0 mm 2 mps 771 mmHg 71%
    23:00 +5°C° 0 mm 2 mps 771 mmHg 71%

    Day after tomorrow, 25 February, Monday

    Time Temperature Precipitation Wind Pressure Humidity
    00:00 +4°C° 0 mm 2 mps 771 mmHg 70%
    01:00 +4°C° 0 mm 2 mps 771 mmHg 70%
    02:00 +4°C° 0 mm 2 mps 771 mmHg 70%
    03:00 +5°C° 0 mm 1 mps 771 mmHg 70%
    04:00 +4°C° 0 mm 2 mps 771 mmHg 70%
    05:00 +3°C° 0 mm 2 mps 771 mmHg 71%
    06:00 +3°C° 0 mm 2 mps 770 mmHg 71%
    07:00 +4°C° 0 mm 2 mps 771 mmHg 70%
    08:00 +5°C° 0 mm 2 mps 771 mmHg 69%
    09:00 +6°C° 0 mm 2 mps 771 mmHg 68%
    10:00 +8°C° 0 mm 2 mps 771 mmHg 65%
    11:00 +10°C° 0 mm 3 mps 771 mmHg 62%
    12:00 +11°C° 0 mm 3 mps 771 mmHg 59%
    13:00 +12°C° 0 mm 3 mps 771 mmHg 60%
    14:00 +12°C° 0 mm 3 mps 771 mmHg 60%
    15:00 +13°C° 0 mm 3 mps 770 mmHg 61%
    16:00 +12°C° 0 mm 3 mps 770 mmHg 66%
    17:00 +10°C° 0 mm 2 mps 770 mmHg 71%
    18:00 +8°C° 0 mm 2 mps 770 mmHg 76%
    19:00 +8°C° 0 mm 2 mps 770 mmHg 77%
    20:00 +7°C° 0 mm 2 mps 770 mmHg 77%
    21:00 +7°C° 0 mm 2 mps 770 mmHg 77%
    22:00 +6°C° 0 mm 2 mps 770 mmHg 77%
    23:00 +6°C° 0 mm 2 mps 770 mmHg 78%

    26 February, Tuesday

    Time Temperature Precipitation Wind Pressure Humidity
    00:00 +6°C° 0 mm 2 mps 769 mmHg 79%
    01:00 +5°C° 0 mm 2 mps 769 mmHg 81%
    02:00 +5°C° 0 mm 2 mps 769 mmHg 82%
    03:00 +5°C° 0 mm 2 mps 769 mmHg 84%
    04:00 +5°C° 0 mm 2 mps 768 mmHg 85%
    05:00 +5°C° 0 mm 2 mps 768 mmHg 87%
    06:00 +5°C° 0 mm 2 mps 768 mmHg 89%
    07:00 +6°C° 0 mm 2 mps 768 mmHg 86%
    08:00 +7°C° 0 mm 2 mps 768 mmHg 84%
    09:00 +7°C° 0 mm 2 mps 768 mmHg 82%
    10:00 +9°C° 0 mm 2 mps 768 mmHg 76%
    11:00 +12°C° 0 mm 2 mps 768 mmHg 71%
    12:00 +14°C° 0 mm 2 mps 768 mmHg 65%
    13:00 +15°C° 0 mm 2 mps 768 mmHg 64%
    14:00 +15°C° 0 mm 2 mps 767 mmHg 63%
    15:00 +16°C° 0 mm 1 mps 767 mmHg 62%
    16:00 +14°C° 0 mm 1 mps 767 mmHg 69%
    17:00 +13°C° 0 mm 1 mps 767 mmHg 75%
    18:00 +11°C° 0 mm 1 mps 767 mmHg 82%
    19:00 +10°C° 0 mm 1 mps 767 mmHg 84%
    20:00 +9°C° 0 mm 2 mps 767 mmHg 86%
    21:00 +8°C° 0 mm 2 mps 767 mmHg 88%
    22:00 +8°C° 0 mm 2 mps 766 mmHg 88%
    23:00 +7°C° 0 mm 2 mps 766 mmHg 89%

    27 February, Wednesday

    Time Temperature Precipitation Wind Pressure Humidity
    00:00 +7°C° 0 mm 2 mps 766 mmHg 90%
    01:00 +7°C° 0 mm 1 mps 766 mmHg 90%
    02:00 +7°C° 0 mm 1 mps 766 mmHg 91%
    03:00 +7°C° 0 mm 1 mps 765 mmHg 91%
    04:00 +6°C° 0 mm 1 mps 765 mmHg 92%
    05:00 +6°C° 0 mm 1 mps 765 mmHg 92%
    06:00 +6°C° 0 mm 1 mps 765 mmHg 93%
    07:00 +7°C° 0 mm 1 mps 765 mmHg 90%
    08:00 +7°C° 0 mm 2 mps 765 mmHg 88%
    09:00 +7°C° 0 mm 2 mps 765 mmHg 86%
    10:00 +9°C° 0 mm 2 mps 765 mmHg 80%
    11:00 +12°C° 0 mm 2 mps 765 mmHg 74%
    12:00 +13°C° 0 mm 2 mps 765 mmHg 68%
    13:00 +14°C° 0 mm 2 mps 764 mmHg 67%
    14:00 +14°C° 0 mm 2 mps 764 mmHg 65%
    15:00 +15°C° 0 mm 2 mps 763 mmHg 64%
    16:00 +13°C° 0 mm 2 mps 763 mmHg 70%
    17:00 +12°C° 0 mm 2 mps 763 mmHg 76%
    18:00 +10°C° 0 mm 1 mps 763 mmHg 82%
    19:00 +10°C° 0 mm 1 mps 763 mmHg 84%
    20:00 +9°C° 0 mm 1 mps 763 mmHg 85%
    21:00 +9°C° 0 mm 1 mps 763 mmHg 87%
    22:00 +9°C° 0 mm 1 mps 763 mmHg 88%
    23:00 +7°C° 0 mm 2 mps 763 mmHg 89%

    28 February, Thursday

    Time Temperature Precipitation Wind Pressure Humidity
    00:00 +7°C° 0 mm 2 mps 763 mmHg 90%
    01:00 +7°C° 0 mm 2 mps 763 mmHg 90%
    02:00 +7°C° 0 mm 2 mps 763 mmHg 91%
    03:00 +6°C° 0 mm 2 mps 762 mmHg 91%
    04:00 +6°C° 0 mm 2 mps 762 mmHg 91%
    05:00 +6°C° 0 mm 2 mps 762 mmHg 91%
    06:00 +7°C° 0 mm 1 mps 762 mmHg 91%
    07:00 +7°C° 0 mm 1 mps 762 mmHg 88%
    08:00 +8°C° 0 mm 1 mps 763 mmHg 86%
    09:00 +9°C° 0 mm 1 mps 763 mmHg 83%
    10:00 +11°C° 0 mm 1 mps 763 mmHg 78%
    11:00 +12°C° 0 mm 2 mps 763 mmHg 73%
    12:00 +14°C° 0 mm 2 mps 763 mmHg 68%
    13:00 +14°C° 0 mm 2 mps 762 mmHg 67%
    14:00 +14°C° 0 mm 2 mps 762 mmHg 67%
    15:00 +15°C° 0 mm 2 mps 762 mmHg 66%
    16:00 +13°C° 0 mm 2 mps 762 mmHg 73%
    17:00 +12°C° 0 mm 2 mps 762 mmHg 79%
    18:00 +10°C° 0 mm 1 mps 762 mmHg 85%
    19:00 +10°C° 0 mm 1 mps 762 mmHg 87%
    20:00 +9°C° 0 mm 1 mps 763 mmHg 89%
    21:00 +8°C° 0 mm 1 mps 763 mmHg 90%
    22:00 +8°C° 0 mm 1 mps 763 mmHg 91%
    23:00 +7°C° 0 mm 1 mps 763 mmHg 91%
    Show more